,,PA_Meas_PMT16A,,PR_Meas_QMR101_102,,RH_Meas_QMH101,,SR_Meas_QMS101,,TA_Meas_QMH101,,GenWind,,GenWind,
time,status,PA,status,PR,status,RH,status,SR,status,TA,status,DirAvg,status,SpdAvg,
2016-04-18, 06:58:04,VALID,917.471,VALID,0,VALID,104,VALID,83.9115,VALID,19.9368,VALID,127,VALID,2.15842,
2016-04-18, 07:01:04,VALID,917.402,VALID,0,VALID,104,VALID,100.35,VALID,20.0749,VALID,139,VALID,2.17266,
2016-04-18, 07:04:04,VALID,917.457,VALID,0,VALID,104,VALID,112.169,VALID,20.1334,VALID,125,VALID,2.7707,
2016-04-18, 07:05:04,VALID,917.443,VALID,0,VALID,104,VALID,115.607,VALID,20.1318,VALID,136,VALID,3.00469,
2016-04-18, 07:06:04,VALID,917.499,VALID,0,VALID,104,VALID,118.508,VALID,20.1708,VALID,138,VALID,2.82109,
2016-04-18, 07:07:04,VALID,917.479,VALID,0,VALID,104,VALID,121.409,VALID,20.2489,VALID,147,VALID,2.45195,
2016-04-18, 07:08:04,VALID,917.481,VALID,0,INVALID,109.068,VALID,124.847,VALID,20.2879,VALID,128,VALID,2.76445,
2016-04-18, 07:09:04,VALID,917.486,VALID,0,INVALID,109.228,VALID,128.607,VALID,20.3464,VALID,145,VALID,2.71875,
2016-04-18, 07:10:04,VALID,917.487,VALID,0,INVALID,109.366,VALID,131.508,VALID,20.4049,VALID,121,VALID,2.10117,
2016-04-18, 07:11:04,VALID,917.505,VALID,0,INVALID,109.571,VALID,135.591,VALID,20.4244,VALID,146,VALID,2.5375,
2016-04-18, 07:12:04,VALID,917.502,VALID,0,INVALID,109.716,VALID,141.178,VALID,20.4244,VALID,148,VALID,2.3832,
2016-04-18, 07:13:04,VALID,917.519,VALID,0,INVALID,109.899,VALID,145.368,VALID,20.4244,VALID,140,VALID,2.44961,
2016-04-18, 07:14:04,VALID,917.484,VALID,0,INVALID,110.075,VALID,147.624,VALID,20.4049,VALID,139,VALID,2.92266,
2016-04-18, 07:15:04,VALID,917.488,VALID,0,INVALID,110.257,VALID,151.599,VALID,20.4244,VALID,145,VALID,2.5707,
2016-04-18, 07:16:04,VALID,917.473,VALID,0,INVALID,110.402,VALID,155.467,VALID,20.4228,VALID,138,VALID,2.24531,
2016-04-18, 07:17:04,VALID,917.495,VALID,0,INVALID,110.509,VALID,157.186,VALID,20.4829,VALID,131,VALID,1.86758,
2016-04-18, 07:18:04,VALID,917.479,VALID,0,INVALID,110.73,VALID,159.443,VALID,20.5414,VALID,143,VALID,2.93672,
2016-04-18, 07:19:04,VALID,917.531,VALID,0,INVALID,110.928,VALID,162.451,VALID,20.5804,VALID,139,VALID,2.5293,
2016-04-18, 07:20:04,VALID,917.484,VALID,0,INVALID,111.119,VALID,165.997,VALID,20.639,VALID,140,VALID,2.88516,
2016-04-18, 07:21:04,VALID,917.496,VALID,0,INVALID,111.279,VALID,168.79,VALID,20.6975,VALID,139,VALID,1.96563,
2016-04-18, 07:22:04,VALID,917.512,VALID,0,INVALID,111.393,VALID,171.584,VALID,20.7755,VALID,140,VALID,2.65195,
2016-04-18, 07:23:04,VALID,917.479,VALID,0,INVALID,111.325,VALID,173.195,VALID,20.873,VALID,133,VALID,2.49961,
2016-04-18, 07:24:04,VALID,917.527,VALID,0,INVALID,111.127,VALID,175.666,VALID,20.9511,VALID,146,VALID,2.29297,
2016-04-18, 07:25:04,VALID,917.52,VALID,0,INVALID,110.791,VALID,180.286,VALID,20.9901,VALID,145,VALID,2.46055,
2016-04-18, 07:26:04,VALID,917.531,VALID,0,INVALID,110.265,VALID,184.047,VALID,21.0096,VALID,147,VALID,1.9918,
2016-04-18, 07:27:04,VALID,917.52,VALID,0,INVALID,109.762,VALID,186.948,VALID,21.0681,VALID,144,VALID,2.43242,
2016-04-18, 07:28:04,VALID,917.503,VALID,0,INVALID,109.068,VALID,190.386,VALID,21.1673,VALID,138,VALID,2.03008,
2016-04-18, 07:29:04,VALID,917.498,VALID,0,VALID,104,VALID,193.394,VALID,21.2031,VALID,133,VALID,2.18164,
2016-04-18, 07:30:04,VALID,917.525,VALID,0,VALID,104,VALID,196.617,VALID,21.3022,VALID,145,VALID,2.68906,
2016-04-18, 07:31:04,VALID,917.498,VALID,0,VALID,104,VALID,200.915,VALID,21.3412,VALID,152,VALID,2.35938,
2016-04-18, 07:32:04,VALID,917.502,VALID,0,VALID,104,VALID,204.783,VALID,21.3786,VALID,143,VALID,1.65039,
2016-04-18, 07:33:04,VALID,917.493,VALID,0,VALID,104,VALID,206.717,VALID,21.3981,VALID,150,VALID,2.05664,
2016-04-18, 07:34:04,VALID,917.511,VALID,0,VALID,104,VALID,212.411,VALID,21.4372,VALID,146,VALID,3.06328,
2016-04-18, 07:35:04,VALID,917.484,VALID,0,VALID,104,VALID,216.924,VALID,21.4762,VALID,145,VALID,1.7707,
2016-04-18, 07:36:04,VALID,917.496,VALID,0,VALID,104,VALID,219.932,VALID,21.4762,VALID,145,VALID,2.32305,
2016-04-18, 07:37:04,VALID,917.443,VALID,0,VALID,104,VALID,224.122,VALID,21.4957,VALID,150,VALID,2.56562,
2016-04-18, 07:38:04,VALID,917.508,VALID,0,VALID,104,VALID,227.775,VALID,21.5559,VALID,145,VALID,2.33672,
2016-04-18, 07:39:04,VALID,917.524,VALID,0,VALID,104,VALID,230.891,VALID,21.5737,VALID,143,VALID,1.81328,
2016-04-18, 07:40:04,VALID,917.499,VALID,0,VALID,104,VALID,235.081,VALID,21.6518,VALID,141,VALID,2.22461,
2016-04-18, 07:41:04,VALID,917.493,VALID,0,VALID,104,VALID,240.561,VALID,21.7282,VALID,149,VALID,2.17461,
2016-04-18, 07:42:04,VALID,917.473,VALID,0,VALID,104,VALID,246.9,VALID,21.8664,VALID,132,VALID,1.99336,
2016-04-18, 07:43:04,VALID,917.528,VALID,0,VALID,104,VALID,249.693,VALID,22.0013,VALID,149,VALID,2.25898,
2016-04-18, 07:44:04,VALID,917.528,VALID,0,VALID,104,VALID,242.172,VALID,22.1201,VALID,124,VALID,1.45781,
2016-04-18, 07:45:04,VALID,917.539,VALID,0,VALID,104,VALID,236.908,VALID,22.1379,VALID,143,VALID,1.95781,
2016-04-18, 07:46:04,VALID,917.549,VALID,0,VALID,103.518,VALID,250.66,VALID,22.255,VALID,133,VALID,2.16563,
2016-04-18, 07:47:04,VALID,917.555,VALID,0,VALID,102.657,VALID,264.413,VALID,22.3737,VALID,138,VALID,2.00195,
2016-04-18, 07:48:04,VALID,917.516,VALID,0,VALID,102.116,VALID,279.132,VALID,22.4323,VALID,142,VALID,2.01172,
2016-04-18, 07:49:04,VALID,917.585,VALID,0,VALID,103.099,VALID,284.719,VALID,22.4518,VALID,117,VALID,1.66016,
2016-04-18, 07:50:04,VALID,917.616,VALID,0,VALID,104,VALID,278.165,VALID,22.5706,VALID,133,VALID,1.25781,
2016-04-18, 07:51:04,VALID,917.613,VALID,0,VALID,103.343,VALID,263.875,VALID,22.6292,VALID,121,VALID,2.45547,
2016-04-18, 07:52:04,VALID,917.62,VALID,0,VALID,82.4396,VALID,274.19,VALID,22.6682,VALID,146,VALID,2.26328,
2016-04-18, 07:53:04,VALID,917.609,VALID,0,VALID,84.0558,VALID,300.513,VALID,22.8812,VALID,142,VALID,2.1793,
2016-04-18, 07:54:04,VALID,917.628,VALID,0,VALID,84.4217,VALID,311.364,VALID,22.9805,VALID,141,VALID,1.24336,
2016-04-18, 07:55:04,VALID,917.639,VALID,0,VALID,92.3958,VALID,318.133,VALID,22.9787,VALID,135,VALID,1.52266,
2016-04-18, 07:56:04,VALID,917.649,VALID,0,VALID,98.2963,VALID,308.141,VALID,22.9202,VALID,127,VALID,1.67539,
2016-04-18, 07:57:04,VALID,917.664,VALID,0,VALID,102.84,VALID,196.295,VALID,22.8421,VALID,125,VALID,0.832422,
2016-04-18, 07:58:04,VALID,917.648,VALID,0,VALID,103.48,VALID,161.484,VALID,22.647,VALID,139,VALID,0.3625,
2016-04-18, 07:59:04,VALID,917.68,VALID,0,VALID,104,VALID,179.427,VALID,22.5103,VALID,103,VALID,0.378516,
2016-04-18, 08:00:04,VALID,917.702,VALID,0,VALID,104,VALID,232.932,VALID,22.3933,VALID,121,VALID,1.99414,
2016-04-18, 08:01:04,VALID,917.676,VALID,0,VALID,103.625,VALID,297.182,VALID,22.4111,VALID,155,VALID,1.05781,
2016-04-18, 08:02:04,VALID,917.741,VALID,0,VALID,103.861,VALID,339.621,VALID,22.4713,VALID,125,VALID,0.633203,
2016-04-18, 08:03:04,VALID,917.72,VALID,0,VALID,104,VALID,359.283,VALID,22.5884,VALID,166,VALID,0.164844,
2016-04-18, 08:04:04,VALID,917.706,VALID,0,VALID,104,VALID,368.093,VALID,22.6647,VALID,181,VALID,0.582422,
2016-04-18, 08:05:04,VALID,917.715,VALID,0,VALID,104,VALID,345.638,VALID,22.7836,VALID,158,VALID,0.766797,
2016-04-18, 08:06:04,VALID,917.709,VALID,0,VALID,102.855,VALID,341.233,VALID,22.7818,VALID,147,VALID,2.10469,
2016-04-18, 08:07:04,VALID,917.688,VALID,0,VALID,102.787,VALID,364.011,VALID,22.7623,VALID,142,VALID,1.0582,
2016-04-18, 08:08:04,VALID,917.716,VALID,0,VALID,102.809,VALID,371.209,VALID,22.7623,VALID,135,VALID,2.0707,
2016-04-18, 08:09:04,VALID,917.688,VALID,0,VALID,104,VALID,395.598,VALID,22.8404,VALID,156,VALID,0.0289063,
2016-04-18, 08:10:04,VALID,917.688,VALID,0,VALID,104,VALID,377.548,VALID,22.9575,VALID,142,VALID,1.05859,
2016-04-18, 08:11:04,VALID,917.704,VALID,0,VALID,103.701,VALID,349.506,VALID,23.016,VALID,150,VALID,0.580078,
2016-04-18, 08:12:04,VALID,917.706,VALID,0,VALID,103.099,VALID,243.032,VALID,23.1739,VALID,156,VALID,0.301953,
2016-04-18, 08:13:04,VALID,917.72,VALID,0,VALID,87.9513,VALID,184.906,VALID,23.1917,VALID,152,VALID,2.46484,
2016-04-18, 08:14:04,VALID,917.736,VALID,0,VALID,89.1863,VALID,175.666,VALID,23.1527,VALID,166,VALID,1.39453,
2016-04-18, 08:15:04,VALID,917.737,VALID,0,VALID,96.9012,VALID,195.113,VALID,23.1704,VALID,180,VALID,0.232422,
2016-04-18, 08:16:04,VALID,917.756,VALID,0,VALID,95.773,VALID,243.247,VALID,23.1136,VALID,145,VALID,1.25508,
2016-04-18, 08:17:04,VALID,917.737,VALID,0,VALID,99.2721,VALID,398.607,VALID,23.0143,VALID,129,VALID,1.26406,
2016-04-18, 08:18:04,VALID,917.767,VALID,0,VALID,91.9689,VALID,442.013,VALID,23.0924,VALID,140,VALID,1.2625,
2016-04-18, 08:19:04,VALID,917.728,VALID,0,VALID,92.7617,VALID,443.732,VALID,23.2307,VALID,145,VALID,0.176563,
2016-04-18, 08:20:04,VALID,917.729,VALID,0,VALID,87.8599,VALID,422.459,VALID,23.3887,VALID,159,VALID,1.04297,
2016-04-18, 08:21:04,VALID,917.765,VALID,0,VALID,87.1966,VALID,426.756,VALID,23.4454,VALID,165,VALID,1.52578,
2016-04-18, 08:22:04,VALID,917.785,VALID,0,VALID,84.5894,VALID,433.525,VALID,23.5626,VALID,153,VALID,1.65781,
2016-04-18, 08:23:04,VALID,917.788,VALID,0,VALID,81.6773,VALID,432.236,VALID,23.5998,VALID,157,VALID,1.17461,
2016-04-18, 08:24:04,VALID,917.767,VALID,0,VALID,81.0064,VALID,430.517,VALID,23.6974,VALID,143,VALID,1.74805,
2016-04-18, 08:25:04,VALID,917.823,VALID,0,VALID,79.4665,VALID,430.194,VALID,23.8145,VALID,145,VALID,1.66055,
2016-04-18, 08:26:04,VALID,917.778,VALID,0,VALID,81.2351,VALID,429.657,VALID,23.8536,VALID,135,VALID,1.29414,
2016-04-18, 08:27:04,VALID,917.832,VALID,0,VALID,76.5925,VALID,429.013,VALID,23.8322,VALID,166,VALID,1.67578,
2016-04-18, 08:28:04,VALID,917.86,VALID,0,VALID,77.9875,VALID,427.616,VALID,24.0683,VALID,174,VALID,1.675,
2016-04-18, 08:29:04,VALID,917.837,VALID,0,VALID,76.0436,VALID,426.541,VALID,24.2049,VALID,145,VALID,0.343359,
2016-04-18, 08:30:04,VALID,917.85,VALID,0,VALID,75.2202,VALID,426.219,VALID,24.2245,VALID,163,VALID,1.81875,
2016-04-18, 08:31:04,VALID,917.867,VALID,0,VALID,77.7055,VALID,425.467,VALID,24.2635,VALID,149,VALID,1.01563,
2016-04-18, 08:32:04,VALID,917.834,VALID,0,VALID,74.9839,VALID,425.037,VALID,24.3026,VALID,132,VALID,0.394531,
2016-04-18, 08:33:04,VALID,917.891,VALID,0,VALID,76.7602,VALID,425.36,VALID,24.283,VALID,159,VALID,2.12969,
2016-04-18, 08:34:04,VALID,917.851,VALID,0,VALID,76.4552,VALID,427.079,VALID,24.2635,VALID,163,VALID,0.379687,
2016-04-18, 08:35:04,VALID,917.901,VALID,0,VALID,78.788,VALID,426.864,VALID,24.3611,VALID,146,VALID,0.406641,
2016-04-18, 08:36:04,VALID,917.904,VALID,0,VALID,74.1453,VALID,429.12,VALID,24.3221,VALID,165,VALID,1.42031,
2016-04-18, 08:37:04,VALID,917.919,VALID,0,VALID,71.2179,VALID,428.69,VALID,24.3806,VALID,77,VALID,0.163672,
2016-04-18, 08:38:04,VALID,917.92,VALID,0,VALID,77.2557,VALID,429.765,VALID,24.4197,VALID,157,VALID,1.23242,
2016-04-18, 08:39:04,VALID,917.937,VALID,0,VALID,75.8835,VALID,432.021,VALID,24.4997,VALID,182,VALID,0.508594,
2016-04-18, 08:40:04,VALID,917.937,VALID,0,VALID,72.1023,VALID,434.062,VALID,24.4587,VALID,155,VALID,2.16758,
2016-04-18, 08:41:04,VALID,917.945,VALID,0,VALID,71.7897,VALID,436.963,VALID,24.4587,VALID,146,VALID,0.983203,
2016-04-18, 08:42:04,VALID,917.947,VALID,0,VALID,75.7615,VALID,440.079,VALID,24.4392,VALID,147,VALID,0,
2016-04-18, 08:43:04,VALID,917.971,VALID,0,VALID,74.7933,VALID,444.377,VALID,24.4783,VALID,155,VALID,1.41094,
2016-04-18, 08:44:04,VALID,917.983,VALID,0,VALID,73.1467,VALID,449.319,VALID,24.4197,VALID,144,VALID,1.99648,
2016-04-18, 08:45:04,VALID,918.003,VALID,0,VALID,72.979,VALID,451.897,VALID,24.3611,VALID,144,VALID,1.12695,
2016-04-18, 08:46:04,VALID,917.965,VALID,0,VALID,75.2889,VALID,456.195,VALID,24.4002,VALID,161,VALID,0.0304688,
2016-04-18, 08:47:04,VALID,918.061,VALID,0,VALID,73.3449,VALID,459.956,VALID,24.4978,VALID,157,VALID,2.02031,
2016-04-18, 08:48:04,VALID,918.052,VALID,0,VALID,74.1758,VALID,463.071,VALID,24.5368,VALID,143,VALID,1.08203,
2016-04-18, 08:49:04,VALID,918.091,VALID,0,VALID,74.3359,VALID,465.972,VALID,24.4978,VALID,154,VALID,0.867578,
2016-04-18, 08:50:04,VALID,918.114,VALID,0,VALID,74.0234,VALID,466.939,VALID,24.5564,VALID,154,VALID,0,
2016-04-18, 08:51:04,VALID,918.148,VALID,0,VALID,76.4171,VALID,470.807,VALID,24.7126,VALID,115,VALID,0.0398437,
2016-04-18, 08:52:04,VALID,918.167,VALID,0,VALID,72.0337,VALID,475.535,VALID,24.8102,VALID,104,VALID,1.41133,
2016-04-18, 08:53:04,VALID,918.184,VALID,0,VALID,73.7184,VALID,474.353,VALID,24.8102,VALID,120,VALID,1.04102,
2016-04-18, 08:54:04,VALID,918.176,VALID,0,VALID,74.9306,VALID,479.617,VALID,24.8883,VALID,131,VALID,0.000390625,
2016-04-18, 08:55:04,VALID,918.168,VALID,0,VALID,75.5709,VALID,481.766,VALID,24.945,VALID,133,VALID,0,
2016-04-18, 08:56:04,VALID,918.178,VALID,0,VALID,72.9027,VALID,483.915,VALID,25.0231,VALID,173,VALID,1.28008,
2016-04-18, 08:57:04,VALID,918.165,VALID,0,VALID,73.4669,VALID,488.427,VALID,25.1012,VALID,154,VALID,0.295703,
2016-04-18, 08:58:04,VALID,918.142,VALID,0,VALID,73.4592,VALID,492.51,VALID,25.0426,VALID,133,VALID,0.329297,
2016-04-18, 08:59:04,VALID,918.138,VALID,0,VALID,72.7808,VALID,496.808,VALID,25.1793,VALID,147,VALID,0,
2016-04-18, 09:00:04,VALID,918.133,VALID,0,VALID,72.2242,VALID,498.205,VALID,25.1988,VALID,155,VALID,0.701953,
2016-04-18, 09:01:04,VALID,918.154,VALID,0,VALID,72.2014,VALID,500.568,VALID,25.1793,VALID,158,VALID,2.475,
2016-04-18, 09:02:04,VALID,918.166,VALID,0,VALID,72.7884,VALID,504.436,VALID,25.0621,VALID,120,VALID,1.31562,
2016-04-18, 09:03:04,VALID,918.159,VALID,0,VALID,73.4592,VALID,508.197,VALID,25.1031,VALID,130,VALID,0.00234375,
2016-04-18, 09:04:04,VALID,918.137,VALID,0,VALID,70.8444,VALID,510.345,VALID,25.2398,VALID,168,VALID,0.0859375,
2016-04-18, 09:05:04,VALID,918.128,VALID,0,VALID,70.791,VALID,515.073,VALID,25.3374,VALID,166,VALID,0.333594,
2016-04-18, 09:06:04,VALID,918.127,VALID,0,VALID,72.4529,VALID,516.899,VALID,25.357,VALID,146,VALID,0.153906,
2016-04-18, 09:07:04,VALID,918.123,VALID,0,VALID,71.9117,VALID,520.445,VALID,25.4546,VALID,157,VALID,0.189453,
2016-04-18, 09:08:04,VALID,918.124,VALID,0,VALID,72.7198,VALID,521.842,VALID,25.5894,VALID,137,VALID,0.406641,
2016-04-18, 09:09:04,VALID,918.115,VALID,0,VALID,72.5063,VALID,526.032,VALID,25.5894,VALID,133,VALID,0.428906,
2016-04-18, 09:10:04,VALID,918.185,VALID,0,VALID,71.6906,VALID,529.792,VALID,25.6675,VALID,166,VALID,0.34375,
2016-04-18, 09:11:04,VALID,918.146,VALID,0,VALID,71.6372,VALID,533.875,VALID,25.7456,VALID,162,VALID,0,
2016-04-18, 09:12:04,VALID,918.144,VALID,0,VALID,68.9767,VALID,537.528,VALID,25.7847,VALID,126,VALID,0.0121094,
2016-04-18, 09:13:04,VALID,918.12,VALID,0,VALID,73.1924,VALID,540.966,VALID,25.8823,VALID,97,VALID,0.590234,
2016-04-18, 09:14:04,VALID,918.15,VALID,0,VALID,69.0758,VALID,542.793,VALID,25.9604,VALID,154,VALID,0.655469,
2016-04-18, 09:15:04,VALID,918.143,VALID,0,VALID,69.2054,VALID,546.123,VALID,26.0601,VALID,160,VALID,0.676172,
2016-04-18, 09:16:04,VALID,918.162,VALID,0,VALID,67.4672,VALID,549.669,VALID,26.1948,VALID,161,VALID,0.350391,
2016-04-18, 09:17:04,VALID,918.181,VALID,0,VALID,67.0479,VALID,554.826,VALID,26.1578,VALID,154,VALID,1.30313,
2016-04-18, 09:18:04,VALID,918.18,VALID,0,VALID,68.0009,VALID,556.867,VALID,25.9409,VALID,142,VALID,1.39844,
2016-04-18, 09:19:04,VALID,918.157,VALID,0,VALID,69.0453,VALID,561.273,VALID,25.8823,VALID,134,VALID,0,
2016-04-18, 09:20:04,VALID,918.135,VALID,0,VALID,68.4735,VALID,562.24,VALID,25.9214,VALID,147,VALID,0.217969,
2016-04-18, 09:21:04,VALID,918.137,VALID,0,VALID,68.8852,VALID,567.826,VALID,25.9409,VALID,181,VALID,1.04844,
2016-04-18, 09:22:04,VALID,918.176,VALID,0,VALID,67.2538,VALID,569.331,VALID,25.8433,VALID,167,VALID,1.04492,
2016-04-18, 09:23:04,VALID,918.135,VALID,0,VALID,68.504,VALID,572.554,VALID,25.9409,VALID,190,VALID,0.503906,
2016-04-18, 09:24:04,VALID,918.105,VALID,0,VALID,66.1941,VALID,573.843,VALID,26.1187,VALID,187,VALID,0.00195313,
2016-04-18, 09:25:04,VALID,918.098,VALID,0,VALID,66.865,VALID,575.67,VALID,26.312,VALID,153,VALID,0,
2016-04-18, 09:26:04,VALID,918.121,VALID,0,VALID,65.1116,VALID,575.347,VALID,26.5054,VALID,166,VALID,0,
2016-04-18, 09:27:04,VALID,918.103,VALID,0,VALID,70.4709,VALID,577.926,VALID,26.7398,VALID,148,VALID,0,
2016-04-18, 09:28:04,VALID,918.189,VALID,0,VALID,69.2664,VALID,580.934,VALID,26.9546,VALID,68,VALID,0.607422,
2016-04-18, 09:29:04,VALID,918.162,VALID,0,VALID,63.6479,VALID,581.471,VALID,27.15,VALID,56,VALID,1.00859,
2016-04-18, 09:30:04,VALID,918.172,VALID,0,VALID,63.8461,VALID,584.158,VALID,27.15,VALID,63,VALID,0,
2016-04-18, 09:31:04,VALID,918.173,VALID,0,VALID,64.6085,VALID,588.24,VALID,27.2672,VALID,85,VALID,0,
2016-04-18, 09:32:04,VALID,918.126,VALID,0,VALID,65.0125,VALID,590.604,VALID,27.3844,VALID,85,VALID,0,
2016-04-18, 09:33:04,VALID,918.13,VALID,0,VALID,63.6403,VALID,593.075,VALID,27.5017,VALID,29,VALID,0,
2016-04-18, 09:34:04,VALID,918.119,VALID,0,VALID,62.4815,VALID,594.687,VALID,27.6971,VALID,27,VALID,0.315625,
2016-04-18, 09:35:04,VALID,918.088,VALID,0,VALID,57.5415,VALID,596.836,VALID,27.658,VALID,5,VALID,0.127344,
2016-04-18, 09:36:04,VALID,918.095,VALID,0,VALID,58.5173,VALID,601.133,VALID,27.5408,VALID,7,VALID,0,
2016-04-18, 09:37:04,VALID,918.072,VALID,0,VALID,58.9976,VALID,603.497,VALID,27.2672,VALID,280,VALID,0.00585938,
2016-04-18, 09:38:04,VALID,918.062,VALID,0,VALID,60.4994,VALID,606.935,VALID,27.1325,VALID,314,VALID,0,
2016-04-18, 09:39:04,VALID,918.082,VALID,0,VALID,60.629,VALID,608.547,VALID,27.0935,VALID,309,VALID,0,
2016-04-18, 09:40:04,VALID,918.053,VALID,0,VALID,61.6277,VALID,610.695,VALID,26.9567,VALID,280,VALID,0,
2016-04-18, 09:41:04,VALID,918.063,VALID,0,VALID,62.1766,VALID,612.2,VALID,27.0544,VALID,252,VALID,0,
2016-04-18, 09:42:04,VALID,918.096,VALID,0,VALID,62.2681,VALID,614.241,VALID,27.0935,VALID,251,VALID,0,
2016-04-18, 09:43:04,VALID,918.095,VALID,0,VALID,62.0317,VALID,618.002,VALID,27.0719,VALID,25,VALID,0.233594,
2016-04-18, 09:44:04,VALID,918.108,VALID,0,VALID,61.0102,VALID,619.935,VALID,27.1109,VALID,39,VALID,1.23789,
2016-04-18, 09:45:04,VALID,918.083,VALID,0,VALID,63.16,VALID,621.762,VALID,27.0719,VALID,29,VALID,1.47578,
2016-04-18, 09:46:04,VALID,918.087,VALID,0,VALID,65.7672,VALID,625.307,VALID,27.0739,VALID,53,VALID,1.32617,
2016-04-18, 09:47:04,VALID,918.083,VALID,0,VALID,65.9502,VALID,627.349,VALID,27.0348,VALID,31,VALID,1.53672,
2016-04-18, 09:48:04,VALID,918.105,VALID,0,VALID,64.3493,VALID,629.068,VALID,27.0739,VALID,96,VALID,1.23672,
2016-04-18, 09:49:04,VALID,918.125,VALID,0,VALID,63.0152,VALID,631.861,VALID,27.0739,VALID,38,VALID,2.26055,
2016-04-18, 09:50:04,VALID,918.108,VALID,0,VALID,63.6936,VALID,634.977,VALID,27.0935,VALID,77,VALID,1.18086,
2016-04-18, 09:51:04,VALID,918.079,VALID,0,VALID,64.4941,VALID,636.589,VALID,27.0935,VALID,107,VALID,1.02266,
2016-04-18, 09:52:04,VALID,918.092,VALID,0,VALID,66.7583,VALID,641.531,VALID,26.9958,VALID,104,VALID,0.5375,
2016-04-18, 09:53:04,VALID,918.149,VALID,0,VALID,64.5551,VALID,641.961,VALID,27.0914,VALID,72,VALID,1.55703,
2016-04-18, 09:54:04,VALID,918.126,VALID,0,VALID,61.4905,VALID,645.399,VALID,27.0719,VALID,67,VALID,1.28164,
2016-04-18, 09:55:04,VALID,918.146,VALID,0,VALID,65.3251,VALID,649.267,VALID,27.0523,VALID,83,VALID,0.375781,
2016-04-18, 09:56:04,VALID,918.155,VALID,0,VALID,65.043,VALID,651.093,VALID,27.0153,VALID,124,VALID,1.72266,
2016-04-18, 09:57:04,VALID,918.142,VALID,0,VALID,65.6757,VALID,654.854,VALID,26.9156,VALID,52,VALID,1.51953,
2016-04-18, 09:58:04,VALID,918.141,VALID,0,VALID,66.0188,VALID,657.218,VALID,26.9546,VALID,47,VALID,2.13477,
2016-04-18, 09:59:04,VALID,918.175,VALID,0,VALID,61.6887,VALID,660.871,VALID,27.0132,VALID,66,VALID,0.0242187,
2016-04-18, 10:00:04,VALID,918.177,VALID,0,VALID,58.7842,VALID,662.052,VALID,27.0914,VALID,57,VALID,3.75234,
2016-04-18, 10:01:04,VALID,918.15,VALID,0,VALID,62.5425,VALID,665.276,VALID,27.0523,VALID,100,VALID,1.49609,
2016-04-18, 10:02:04,VALID,918.23,VALID,0,VALID,61.9784,VALID,666.243,VALID,26.9156,VALID,55,VALID,3.72109,
2016-04-18, 10:03:04,VALID,918.179,VALID,0,VALID,60.0115,VALID,666.995,VALID,26.8179,VALID,71,VALID,3.93906,
2016-04-18, 10:04:04,VALID,918.2,VALID,0,VALID,63.8614,VALID,670.648,VALID,26.7202,VALID,60,VALID,2.06172,
2016-04-18, 10:05:04,VALID,918.206,VALID,0,VALID,60.751,VALID,671.722,VALID,26.6421,VALID,99,VALID,1.48359,
2016-04-18, 10:06:04,VALID,918.208,VALID,0,VALID,61.46,VALID,674.945,VALID,26.5835,VALID,103,VALID,2.6875,
2016-04-18, 10:07:04,VALID,918.219,VALID,0,VALID,61.3151,VALID,676.772,VALID,26.5054,VALID,84,VALID,2.9543,
2016-04-18, 10:08:04,VALID,918.166,VALID,0,VALID,63.7089,VALID,679.135,VALID,26.603,VALID,54,VALID,1.91875,
2016-04-18, 10:09:04,VALID,918.152,VALID,0,VALID,61.4142,VALID,683.648,VALID,26.7202,VALID,153,VALID,1.4082,
2016-04-18, 10:10:04,VALID,918.204,VALID,0,VALID,63.1676,VALID,686.012,VALID,26.857,VALID,93,VALID,0.323828,
2016-04-18, 10:11:04,VALID,918.195,VALID,0,VALID,62.1003,VALID,688.268,VALID,27.0132,VALID,95,VALID,2.09805,
2016-04-18, 10:12:04,VALID,918.19,VALID,0,VALID,58.7384,VALID,691.814,VALID,27.0132,VALID,51,VALID,3.98555,
2016-04-18, 10:13:04,VALID,918.214,VALID,0,VALID,58.2734,VALID,694.285,VALID,26.9176,VALID,52,VALID,3.34766,
2016-04-18, 10:14:04,VALID,918.234,VALID,0,VALID,64.6847,VALID,697.293,VALID,26.857,VALID,61,VALID,2.64844,
2016-04-18, 10:15:04,VALID,918.269,VALID,0,VALID,62.695,VALID,698.905,VALID,26.9351,VALID,36,VALID,2.45859,
2016-04-18, 10:16:04,VALID,918.285,VALID,0,VALID,60.5452,VALID,700.516,VALID,27.0132,VALID,88,VALID,1.90352,
2016-04-18, 10:17:04,VALID,918.212,VALID,0,VALID,60.6214,VALID,703.632,VALID,27.0914,VALID,39,VALID,2.84883,
2016-04-18, 10:18:04,VALID,918.211,VALID,0,VALID,60.164,VALID,703.954,VALID,27.2086,VALID,81,VALID,1.81953,
2016-04-18, 10:19:04,VALID,918.186,VALID,0,VALID,63.5412,VALID,706.963,VALID,27.2672,VALID,47,VALID,2.62383,
2016-04-18, 10:20:04,VALID,918.186,VALID,0,VALID,60.812,VALID,707.393,VALID,27.3844,VALID,32,VALID,2.05625,
2016-04-18, 10:21:04,VALID,918.146,VALID,0,VALID,61.3685,VALID,710.616,VALID,27.4235,VALID,61,VALID,3.15078,
2016-04-18, 10:22:04,VALID,918.091,VALID,0,VALID,57.3586,VALID,711.798,VALID,27.2281,VALID,42,VALID,2.10078,
2016-04-18, 10:23:04,VALID,918.063,VALID,0,VALID,59.1196,VALID,714.484,VALID,27.1305,VALID,54,VALID,3.92344,
2016-04-18, 10:24:04,VALID,918.027,VALID,0,VALID,60.0573,VALID,717.599,VALID,27.0523,VALID,59,VALID,3.40508,
2016-04-18, 10:25:04,VALID,918.101,VALID,0,VALID,60.6062,VALID,717.385,VALID,26.9937,VALID,69,VALID,2.19453,
2016-04-18, 10:26:04,VALID,918.074,VALID,0,VALID,60.1564,VALID,720.715,VALID,27.0523,VALID,75,VALID,0.720312,
2016-04-18, 10:27:04,VALID,917.975,VALID,0,VALID,61.6887,VALID,722.864,VALID,27.2281,VALID,56,VALID,2.05742,
2016-04-18, 10:28:04,VALID,917.994,VALID,0,VALID,58.9443,VALID,724.905,VALID,27.3454,VALID,55,VALID,1.96563,
2016-04-18, 10:29:04,VALID,917.994,VALID,0,VALID,58.8604,VALID,727.914,VALID,27.3475,VALID,98,VALID,1.97031,
2016-04-18, 10:30:04,VALID,917.941,VALID,0,VALID,56.581,VALID,730.278,VALID,27.404,VALID,64,VALID,2.76094,
2016-04-18, 10:31:04,VALID,917.948,VALID,0,VALID,60.5985,VALID,730.6,VALID,27.4061,VALID,84,VALID,1.53867,
2016-04-18, 10:32:04,VALID,917.938,VALID,0,VALID,62.8703,VALID,731.459,VALID,27.4626,VALID,55,VALID,1.45195,
2016-04-18, 10:33:04,VALID,917.932,VALID,0,VALID,61.0026,VALID,735.435,VALID,27.5798,VALID,150,VALID,0.86875,
2016-04-18, 10:34:04,VALID,917.903,VALID,0,VALID,59.2187,VALID,739.195,VALID,27.7187,VALID,21,VALID,2.28633,
2016-04-18, 10:35:04,VALID,917.909,VALID,0,VALID,60.1945,VALID,746.286,VALID,27.836,VALID,69,VALID,1.53672,
2016-04-18, 10:36:04,VALID,917.883,VALID,0,VALID,59.1882,VALID,741.129,VALID,27.8534,VALID,45,VALID,0.430469,
2016-04-18, 10:37:04,VALID,917.865,VALID,0,VALID,59.0891,VALID,746.179,VALID,28.0097,VALID,29,VALID,1.61758,
2016-04-18, 10:38:04,VALID,917.831,VALID,0,VALID,58.2505,VALID,749.939,VALID,28.2442,VALID,25,VALID,1.80391,